Weather History for Green Bay, WI

Change the Weather History Date:

Monday, November 14, 2011

  Actual Average Record
Temperature  
Mean Temperature 42 °F 35 °F  
Max Temperature 50 °F 43 °F 65 °F (1953)
Min Temperature 34 °F 28 °F 3 °F (1916)
Degree Days  
Heating Degree Days 23 30  
Month to date heating degree days 309 373  
Since 1 July heating degree days 977 1199  
Cooling Degree Days 0 0  
Month to date cooling degree days 0 0  
Year to date cooling degree days 591 398  
Moisture  
Dew Point 36 °F    
Average Humidity 73    
Maximum Humidity 85    
Minimum Humidity 61    
Precipitation  
Precipitation T in 0.07 in 0.95 in (1956)
Month to date precipitation 2.99 1.01  
Year to date precipitation 36.02 26.89  
Snow  
Snow 0.00 in 0.10 in 1.00 in (1916)
Month to date snowfall 2.0 0.9  
Since 1 July snowfall 2.0 1.1  
Since 1 September snowfall 2.0 1.1  
Snow Depth 0.00 in    
Sea Level Pressure  
Sea Level Pressure 29.56 in    
Wind  
Wind Speed 8 mph (SW)    
Max Wind Speed 23 mph    
Max Gust Speed 37 mph    
Visibility 10 miles    
Events      
T = Trace of Precipitation, MM = Missing Value Source: NWS Daily Summary

Daily Weather History Graph

Daily Weather History Graph

Search for Another Location

Airport:

Trip Planner

Search our weather history database for the weather conditions in past years. The results will help you decide how hot, cold, wet, or windy it might be!

Date:

Astronomy

Nov. 14, 2011 Rise Set
Actual Time 6:47 AM CST 4:26 PM CST
Civil Twilight 6:15 AM CST 4:57 PM CST
Nautical Twilight 5:40 AM CST 5:32 PM CST
Astronomical Twilight 5:06 AM CST 6:07 PM CST
Moon 7:30 PM CST (11/14) 10:08 AM CST (11/14)
Length of Visible Light 10h 41m
Length of Day
9h 39m
Waning Gibbous, 86% of the Moon is Illuminated
Nov 14
Waning Gibbous
Nov 18
Last Quarter
Nov 25
New
Dec 2
First Quarter
Dec 10
Full

Hourly Weather History & Observations

Time (CST) Temp. Windchill Dew Point Humidity Pressure Visibility Wind Dir Wind Speed Gust Speed Precip Events Conditions
12:53 AM 45.0 °F 37.9 °F 36.0 °F 71% 29.51 in 10.0 mi West 16.1 mph 21.9 mph N/A   Clear
1:53 AM 44.1 °F 39.0 °F 34.0 °F 68% 29.54 in 10.0 mi WSW 9.2 mph - N/A   Clear
2:53 AM 43.0 °F 37.2 °F 34.0 °F 71% 29.56 in 10.0 mi WSW 10.4 mph - N/A   Clear
3:53 AM 39.2 °F - 33.8 °F 81% 29.54 in 10.0 mi Calm Calm - N/A   Clear
6:53 AM 37.0 °F 34.5 °F 33.1 °F 86% 29.56 in 8.0 mi South 3.5 mph - N/A   Clear
7:53 AM 39.0 °F 32.8 °F 34.0 °F 82% 29.57 in 9.0 mi South 9.2 mph - N/A   Clear
8:53 AM 42.1 °F 36.6 °F 36.0 °F 79% 29.58 in 10.0 mi South 9.2 mph - N/A   Clear
9:53 AM 44.1 °F 40.8 °F 37.9 °F 79% 29.58 in 9.0 mi SSW 5.8 mph - N/A   Clear
10:53 AM 46.0 °F 41.4 °F 37.9 °F 73% 29.56 in 10.0 mi SSW 9.2 mph - N/A   Overcast
11:53 AM 48.9 °F - 37.9 °F 66% 29.53 in 10.0 mi SSW 13.8 mph 20.7 mph N/A   Partly Cloudy
12:53 PM 48.9 °F - 37.0 °F 64% 29.51 in 10.0 mi SSW 9.2 mph 20.7 mph N/A   Overcast
1:53 PM 48.9 °F - 39.0 °F 69% 29.51 in 10.0 mi SSW 9.2 mph - N/A   Overcast
2:53 PM 50.0 °F - 37.9 °F 63% 29.51 in 10.0 mi SW 8.1 mph - N/A   Overcast
3:53 PM 48.9 °F - 37.9 °F 66% 29.52 in 10.0 mi SSW 9.2 mph - N/A   Clear
4:53 PM 46.0 °F 42.5 °F 37.0 °F 71% 29.51 in 10.0 mi SSW 6.9 mph - N/A   Clear
5:53 PM 44.1 °F 39.5 °F 36.0 °F 73% 29.54 in 10.0 mi South 8.1 mph - N/A   Clear
6:53 PM 48.2 °F - 37.4 °F 66% 29.53 in 10.0 mi SSW 13.8 mph 36.8 mph N/A   Mostly Cloudy
7:53 PM 46.0 °F 40.2 °F 37.0 °F 71% 29.56 in 10.0 mi SSW 12.7 mph - N/A   Partly Cloudy
8:53 PM 46.0 °F 41.0 °F 37.0 °F 71% 29.60 in 10.0 mi WSW 10.4 mph - N/A   Clear
9:53 PM 43.0 °F 37.2 °F 34.0 °F 71% 29.62 in 10.0 mi West 10.4 mph - N/A   Clear
10:53 PM 42.1 °F 39.2 °F 32.0 °F 67% 29.65 in 10.0 mi SW 4.6 mph - N/A   Clear
11:53 PM 39.0 °F 35.7 °F 30.9 °F 73% 29.65 in 10.0 mi SSW 4.6 mph - N/A   Clear